Retour au catalogue

STARLINK-4034

ActifCommunicationsVLEO
NORAD 52700·PAYLOAD·🇺🇸 United States

Lancé May 18, 2022 depuis Cape Canaveral Space Force Station

Loading…

Prochains Passages (prochaines 24 heures)

TLE

FraisSource: CelesTrak SupGP

Époque: Sep 14, 2026, 21:07 UTC

1 52700C 22053AW  26257.88034722  .00000811  00000+0  23960-4 0  2572
2 52700  53.1600  14.0468 0001006  78.2660 291.2933 15.34392256    10

Suivez STARLINK-4034 en temps réel avec AllMySat

Download on the App Store